Weather History for Orlando International, FL

Change the Weather History Date:

Wednesday, June 26, 2013

  Actual Average Record
Temperature  
Mean Temperature 83 °F 82 °F  
Max Temperature 94 °F 91 °F 100 °F (1950)
Min Temperature 72 °F 73 °F 66 °F (1893)
Degree Days  
Heating Degree Days 0 0  
Month to date heating degree days 0 0  
Since 1 June heating degree days 0 0  
Since 1 July heating degree days 461 571  
Cooling Degree Days 18 17  
Month to date cooling degree days 440 422  
Year to date cooling degree days 1312 1223  
Since 1 June cooling degree days 440 422  
Growing Degree Days 33 (Base 50)    
Moisture  
Dew Point 73 °F    
Average Humidity 78    
Maximum Humidity 100    
Minimum Humidity 56    
Precipitation  
Precipitation T in 0.24 in 3.47 in (1974)
Month to date precipitation 9.38 6.59  
Year to date precipitation 20.25 21.22  
Sea Level Pressure  
Sea Level Pressure 30.07 in    
Wind  
Wind Speed 5 mph (SSE)    
Max Wind Speed 26 mph    
Max Gust Speed 33 mph    
Visibility 10 miles    
Events Rain , Thunderstorm    
T = Trace of Precipitation, MM = Missing Value Source: NWS Daily Summary

Daily Weather History Graph

Daily Weather History Graph

Search for Another Location

Airport:

Trip Planner

Search our weather history database for the weather conditions in past years. The results will help you decide how hot, cold, wet, or windy it might be!

Date:

Astronomy

Jun. 26, 2013 Rise Set
Actual Time 6:29 AM EDT 8:26 PM EDT
Civil Twilight 6:02 AM EDT 8:53 PM EDT
Nautical Twilight 5:30 AM EDT 9:25 PM EDT
Astronomical Twilight 4:55 AM EDT 10:00 PM EDT
Moon 11:10 PM EDT (6/26) 10:01 AM EDT (6/26)
Length of Visible Light 14h 50m
Length of Day
13h 56m
Waning Gibbous, 85% of the Moon is Illuminated
Jun 26
Waning Gibbous
Jun 30
Last Quarter
Jul 8
New
Jul 15
First Quarter
Jul 22
Full

Hourly Weather History & Observations

Time (EDT) Temp. Heat Index Dew Point Humidity Pressure Visibility Wind Dir Wind Speed Gust Speed Precip Events Conditions
12:53 AM 77.0 °F - 75.0 °F 94% 30.07 in 10.0 mi ESE 5.8 mph - N/A   Mostly Cloudy
1:53 AM 77.0 °F - 75.0 °F 94% 30.07 in 10.0 mi ESE 4.6 mph - N/A   Mostly Cloudy
2:53 AM 77.0 °F - 75.0 °F 94% 30.05 in 10.0 mi SE 3.5 mph - N/A   Scattered Clouds
3:53 AM 75.9 °F - 75.0 °F 97% 30.05 in 10.0 mi SE 3.5 mph - N/A   Scattered Clouds
4:53 AM 75.9 °F - 73.9 °F 94% 30.04 in 10.0 mi East 3.5 mph - N/A   Scattered Clouds
5:53 AM 75.9 °F - 73.9 °F 94% 30.06 in 10.0 mi Calm Calm - N/A   Scattered Clouds
6:53 AM 75.0 °F - 73.9 °F 96% 30.08 in 10.0 mi Calm Calm - N/A   Scattered Clouds
7:53 AM 78.1 °F - 75.9 °F 93% 30.09 in 10.0 mi South 3.5 mph - N/A   Scattered Clouds
8:53 AM 82.0 °F 89.4 °F 75.9 °F 82% 30.09 in 10.0 mi South 5.8 mph - N/A   Scattered Clouds
9:53 AM 82.9 °F 90.2 °F 75.0 °F 77% 30.09 in 10.0 mi South 6.9 mph - N/A   Scattered Clouds
10:53 AM 86.0 °F 93.8 °F 73.9 °F 67% 30.09 in 10.0 mi Variable 4.6 mph - N/A   Scattered Clouds
11:53 AM 88.0 °F 95.6 °F 73.0 °F 61% 30.09 in 10.0 mi WNW 4.6 mph - N/A   Scattered Clouds
12:53 PM 87.1 °F 94.5 °F 73.0 °F 63% 30.08 in 10.0 mi Variable 3.5 mph - N/A   Scattered Clouds
1:53 PM 89.1 °F 96.0 °F 72.0 °F 57% 30.06 in 10.0 mi Variable 4.6 mph - N/A   Mostly Cloudy
2:44 PM 91.4 °F 98.4 °F 71.6 °F 52% 30.05 in 10.0 mi Variable 5.8 mph - N/A Thunderstorm Thunderstorm
2:53 PM 91.0 °F 98.2 °F 72.0 °F 53% 30.06 in 10.0 mi ENE 13.8 mph 25.3 mph N/A Thunderstorm Thunderstorm
3:35 PM 82.4 °F 86.3 °F 69.8 °F 66% 30.06 in 10.0 mi East 19.6 mph 28.8 mph N/A   Mostly Cloudy
3:53 PM 82.0 °F 85.9 °F 70.0 °F 67% 30.04 in 10.0 mi ESE 18.4 mph - N/A   Mostly Cloudy
4:53 PM 82.0 °F 87.4 °F 73.0 °F 74% 30.06 in 10.0 mi SE 12.7 mph 21.9 mph N/A   Mostly Cloudy
5:53 PM 79.0 °F - 72.0 °F 79% 30.07 in 10.0 mi South 15.0 mph - N/A   Overcast
6:53 PM 75.9 °F - 71.1 °F 85% 30.06 in 10.0 mi SSE 3.5 mph - N/A   Overcast
7:53 PM 75.9 °F - 71.1 °F 85% 30.04 in 10.0 mi SW 8.1 mph - N/A   Overcast
8:53 PM 77.0 °F - 69.1 °F 76% 30.04 in 10.0 mi West 3.5 mph - 0.00 in Rain Light Rain
9:53 PM 73.9 °F - 71.1 °F 91% 30.07 in 10.0 mi South 3.5 mph - 0.00 in   Overcast
10:53 PM 75.9 °F - 70.0 °F 82% 30.08 in 10.0 mi Calm Calm - N/A   Mostly Cloudy
11:53 PM 73.0 °F - 70.0 °F 90% 30.07 in 10.0 mi South 3.5 mph - N/A   Scattered Clouds